Find USA 270

NORAD ID: 41744 Int'l Des: 2016-052 Owner: AFSPC Country: US operational
MEOCIRCULAR

リアルタイム位置

3D地球を読み込み中...

USA 270について

説明を読み込み中...

次回通過

Passes for default location (London). Set your location on the main map for personalized predictions.

高度履歴

Loading altitude history...

軌道要素

1 41744U 16052A 26105.26366022 .00000062 00000-0 00000+0 0 9992
2 41744 4.0374 77.9695 0003378 316.1393 82.5765 1.00346163 27501
Epoch: Apr 15, 2026 • Age: 57 hours

現在のステータス

高度 35775.2 km
速度 3.07 km/s
衛星直下点 -0.08°S, 178.94°E
打ち上げ日 Aug 19, 2016
運用期間 9.6 years
タイプ military

技術仕様

分類 Payload
質量 500.00 kg
乾燥質量 500.00 kg
総質量 500.00 kg
長さ 2.00 m
直径 2.00 m
スパン 5.00 m
形状 Box + 2 pan
製造者 OATKD
バスタイプ GeoStar-1
フェーズステータス In Orbit
所有者/国 AFSPC/US

Most Searched